Welcome to the New NWS' Forecast!
Most changes are behind the scenes, but click here for differences you might notice.

Regional Weather Roundup (RWR)

Issued by San Angelo, TX (SJT)

                            
642 
ASUS44 KSJT 201302
RWRSJT
WEST CENTRAL TEXAS REGIONAL WEATHER ROUNDUP
NATIONAL WEATHER SERVICE SAN ANGELO TX
800 AM CDT MON AUG 20 2018

NOTE: "FAIR" INDICATES FEW OR NO CLOUDS BELOW 12,000 FEET WITH NO
SIGNIFICANT WEATHER AND/OR OBSTRUCTIONS TO VISIBILITY.

TXZ049-054-064>066-071>073-076>078-098-099-113-114-127-128-139-140-
154-155-168>170-201400
...LOCATIONS ACROSS WEST CENTRAL TEXAS...
  
CITY           SKY/WX    TMP DP  RH WIND       PRES   REMARKS
SAN ANGELO     CLEAR     74  67  78 W5        30.07R                  
ABILENE        MOSUNNY   75  64  68 N16       30.10R                  
DYESS AFB      NOT AVBL                                               
JUNCTION       CLEAR     76  73  91 CALM      30.05R                  
SWEETWATER     CLOUDY    73  64  74 N12       30.16R                  
BROWNWOOD      NOT AVBL                                               
COLEMAN        SUNNY     73  66  78 CALM      30.07R                  
SONORA         CLEAR     72  70  94 CALM      30.11R                  
OZONA          FAIR      70  66  88 N5        30.10R                  
BRADY          SUNNY     75  70  83 S7        30.06R                  
$$

TEXAS PANHANDLE/OKLAHOMA PANHANDLE
  
CITY           SKY/WX    TMP DP  RH WIND       PRES   REMARKS
AMARILLO       MOCLDY    63  54  72 NW14      30.22R                  
BORGER         CLEAR     64  53  67 NW7       30.19R                  
CANADIAN       SUNNY     64  57  79 NW12      30.12R                  
DALHART        CLEAR     60  51  72 N10       30.24R HAZE             
DUMAS          SUNNY     58  52  80 NW12      30.21R                  
GUYMON         NOT AVBL                                               
HEREFORD       MOSUNNY   62  57  84 CALM      30.24R                  
PAMPA          NOT AVBL                                               
PERRYTON       CLOUDY    63  56  79 NW15      30.14R                  
$$

SOUTHERN PANHANDLE/SOUTH PLAINS/ROLLING PLAINS
  
CITY           SKY/WX    TMP DP  RH WIND       PRES   REMARKS
LUBBOCK        MOCLDY    67  57  70 N14       30.19R                  
SNYDER         CLOUDY    71  65  80 N12       30.13R                  
CHILDRESS      PTSUNNY   68  60  75 NW9       30.12R                  
SEMINOLE       NOT AVBL                                               
$$

PERMIAN BASIN
  
CITY           SKY/WX    TMP DP  RH WIND       PRES   REMARKS
MIDLAND        CLOUDY    75  66  73 N17       30.16R                  
ODESSA         MOCLDY    72  67  84 NE16G24   30.17R                  
WINK           MOCLDY    75  66  73 NE20G25   30.12R                  
$$

FAR WEST/SOUTHWEST MOUNTAINS/TRANS PECOS
  
CITY           SKY/WX    TMP DP  RH WIND       PRES   REMARKS
ALPINE         MOSUNNY   64  60  88 N5        30.23R                  
DRYDEN           N/A     74  70  87 N8        30.03R                  
EL PASO        MOCLDY    78  55  44 N5        30.09R                  
FORT STOCKTON  CLOUDY    74  63  68 SE5       30.10R                  
GUADALUPE PASS PTCLDY    64  62  93 NE31      30.23R                  
MARFA            N/A     63  59  87 N9        30.21                   
PECOS          NOT AVBL                                               
$$

DALLAS/FORT WORTH METROPLEX
  
CITY           SKY/WX    TMP DP  RH WIND       PRES   REMARKS
DFW AIRPORT    PTSUNNY   81  70  69 W14       29.96R                  
FTW MEACHAM    TSTM      76  74  93 N9        29.99R                  
DAL-EXECUTIVE  SUNNY     82  72  71 SW9       29.96R                  
GRAND PRAIRIE  SUNNY     81  70  69 SW12      29.99R                  
ADDISON        MOSUNNY   81  70  69 W5        29.96R                  
MESQUITE       SUNNY     77  73  88 S7        29.96R                  
LANCASTER      SUNNY     78  72  82 S3        29.97R                  
$$

NORTH CENTRAL TEXAS
  
CITY           SKY/WX    TMP DP  RH WIND       PRES   REMARKS
SHRMAN/DENISON SUNNY     75  70  86 NW9       29.98R                  
GAINESVILLE    SUNNY     72  64  77 NW6       30.01R                  
BRIDGEPORT     CLOUDY    76  64  65 N8        30.05R                  
DENTON         CLOUDY    76  69  79 NW13      29.99R                  
WAXAHACHIE     SUNNY     78  73  84 SW7       29.99R                  
GRANBURY       RAIN      75  69  81 NW5       30.02S                  
$$

WESTERN NORTH TEXAS
  
CITY           SKY/WX    TMP DP  RH WIND       PRES   REMARKS
WICHITA FALLS  SUNNY     72  59  63 NW8       30.03R                  
VERNON         SUNNY     71  60  68 NW12      30.07R                  
BRECKENRIDGE   CLOUDY    75  66  74 N12       30.06R                  
COMANCHE       MOSUNNY   75  71  85 MISG      30.05R                  
$$

CENTRAL AND SOUTH CENTRAL TEXAS
  
CITY           SKY/WX    TMP DP  RH WIND       PRES   REMARKS
AUSTIN/BERGSTM CLOUDY    79  75  87 S6        29.99R                  
WACO           PTSUNNY   80  73  79 S7        29.99R                  
HILLSBORO      MOSUNNY   78  75  90 SW5       29.99R                  
TEMPLE         MOSUNNY   79  74  84 S7        30.00R                  
KILLEEN-GRAY   CLOUDY    78  71  77 S5        30.00R                  
FORT HOOD      CLOUDY    79  71  74 S8        29.97R                  
GEORGETOWN     SUNNY     80  73  79 SW9       30.02R                  
LAGO VISTA     FAIR      78  73  82 SW3       30.03R                  
SAN MARCOS     CLOUDY    79  74  84 S9        30.00                   
NEW BRAUNFELS  PTSUNNY   80  73  79 S7        29.99R                  
RANDOLPH AFB   CLOUDY    79  74  84 S6        30.01R                  
SAN ANTONIO    CLOUDY    79  72  79 SE9       30.01R                  
STINSON        CLOUDY    81  72  74 SE3       29.98R                  
PLEASANTON     NOT AVBL                                               
LA GRANGE      CLOUDY    80  78  93 S5        29.98R                  
GIDDINGS       CLOUDY    79  74  85 S5        30.01R                  
$$

EAST TEXAS
  
CITY           SKY/WX    TMP DP  RH WIND       PRES   REMARKS
PARIS          NOT AVBL                                               
CLARKSVILLE    NOT AVBL                                               
TYLER          SUNNY     81  75  82 SW14      29.96R                  
LONGVIEW       MOSUNNY   82  75  79 SW8       29.95R                  
PALESTINE      SUNNY     81  75  81 S7        30.00R                  
NACOGDOCHES      N/A     80  75  84 SW6         N/A                   
$$

TEXAS HILL COUNTRY AND EDWARDS PLATEAU
  
CITY           SKY/WX    TMP DP  RH WIND       PRES   REMARKS
LLANO          NOT AVBL                                               
HORSESHOE BAY  FAIR      78  70  77 CALM      30.02R                  
KERRVILLE      MOSUNNY   75  71  86 SE7       30.03S                  
FREDERICKSBRG  NOT AVBL                                               
ROCKSPRINGS    PTSUNNY   73  72  94 SE8       30.10R                  
HONDO          CLOUDY    79  74  84 E6        30.01R                  
UVALDE         MOSUNNY   77  71  80 E7        30.01R                  
DEL RIO        CLEAR     79  74  84 E13       29.96R                  
$$

SOUTHEAST TEXAS
  
CITY           SKY/WX    TMP DP  RH WIND       PRES   REMARKS
COLLEGE STN    CLOUDY    79  77  94 S6        29.98R                  
CALDWELL       MOSUNNY   80  75  85 SW7       29.99R                  
CROCKETT       NOT AVBL                                               
BRENHAM        PTSUNNY   81  78  91 SW8       30.00R                  
HUNTSVILLE     CLOUDY    80  75  84 SW8       29.99R                  
CONROE         CLOUDY    82  79  90 SW5       30.00R                  
HOUSTON BUSH   FAIR      83  78  85 SW6       29.99R                  
HOUSTON HOBBY  FAIR      81  78  91 S7        29.99R                  
PERLAND        FAIR      80  77  90 S3        30.01R                  
WHARTON          N/A     78  75  90 CALM      30.00S                  
$$

THE UPPER TEXAS COAST
  
CITY           SKY/WX    TMP DP  RH WIND       PRES   REMARKS
ORANGE         NOT AVBL                                               
PORT ARTHUR    FAIR      80  75  84 SW5       29.99R                  
GALVESTON      FAIR      85  78  80 SW9       30.00R                  
ANGLETON       FAIR      80  76  87 CALM      29.99R                  
BAY CITY       FAIR      78  77  96 CALM      29.99R                  
$$

TEXAS COASTAL BEND, RIO GRANDE PLAINS DEEP SOUTH TEXAS
  
CITY           SKY/WX    TMP DP  RH WIND       PRES   REMARKS
VICTORIA       MOSUNNY   80  76  87 S3        29.99R                  
BEEVILLE       FAIR      77  75  93 SE3       29.98S                  
ROCKPORT       SUNNY     82  77  84 S5        29.97R                  
PORT ARANSAS   SUNNY     81  78  90 S3        29.99R                  
PORT LAVACA    SUNNY     82  77  87 SW3       29.99R                  
CORPUS CHRISTI MOSUNNY   79  79 100 SE6       29.96R                  
KINGSVILLE NAS MOSUNNY   80  76  87 SE8       29.96R                  
COTULLA        CLOUDY    78  74  87 SE12      29.97R                  
LAREDO         PTCLDY    80  73  79 SE12      29.95R                  
BROWNSVILLE    FAIR      81  78  91 SE6       29.96R                  
PORT ISABEL    FAIR      81  75  82 SE3       29.95R                  
HEBBRONVILLE   NOT AVBL                                               
MCALLEN        SUNNY     82  77  84 SE6       29.94R                  
WESLACO        NOT AVBL                                               
FALFURRIAS     SUNNY     78  74  90 E5        29.95R                  
EDINBURG       SUNNY     81  75  82 E5        29.95R                  
$$